Erzincan, Turkey

11:29 AM EET on February 13, 2016 (GMT +0200)
Erzincan

Weather History for LTCD - October, 2013

Change the Weather History Date:

Wednesday, October 30, 2013

  Actual Average Record
Temperature  
Mean Temperature 47 °F -  
Max Temperature 67 °F 52 °F - ()
Min Temperature 27 °F 33 °F - ()
Degree Days  
Heating Degree Days 18    
Moisture  
Dew Point 26 °F    
Average Humidity 52    
Maximum Humidity 93    
Minimum Humidity 10    
Precipitation  
Precipitation 0.00 in 0.05 in - ()
Sea Level Pressure  
Sea Level Pressure 30.17 in    
Wind  
Wind Speed 0 mph ()    
Max Wind Speed 4 mph    
Max Gust Speed -    
Visibility 9.0 miles    
Events      
T = Trace of Precipitation, MM = Missing Value Source: Averaged Metar Reports

Daily Weather History Graph

Daily Weather History Graph

Search for Another Location

Airport or City:

Trip Planner

Search our weather history database for the weather conditions in past years. The results will help you decide how hot, cold, wet, or windy it might be!

Date:

Astronomy

Oct. 30, 2013 Rise Set
Actual Time 5:48 AM EET 4:22 PM EET
Civil Twilight 5:20 AM EET 4:50 PM EET
Nautical Twilight 4:48 AM EET 5:22 PM EET
Astronomical Twilight 4:17 AM EET 5:53 PM EET
Moon 1:16 AM EET (10/30) 1:55 PM EET (10/30)
Length of Visible Light 11h 29m
Length of Day
10h 34m
Waning Crescent, 19% of the Moon is Illuminated
Oct 30
Waning Crescent
Nov 3
New
Nov 10
First Quarter
Nov 17
Full
Nov 25
Last Quarter

Hourly Weather History & Observations

Time (EET) Temp. Dew Point Humidity Pressure Visibility Wind Dir Wind Speed Gust Speed Precip Events Conditions
12:50 AM 33.8 °F 24.8 °F 70% 30.18 in - Calm Calm - N/A   Clear
1:50 AM 33.8 °F 26.6 °F 75% 30.18 in - Calm Calm - N/A   Clear
2:00 AM 34 °F 27 °F 66%  in 6 mi Calm Calm - -  
2:50 AM 33.8 °F 28.4 °F 81% 30.18 in - Calm Calm - N/A   Clear
3:50 AM 28.4 °F 26.6 °F 93% 30.18 in - West 1.2 mph - N/A   Clear
4:50 AM 30.2 °F 24.8 °F 80% 30.21 in - Calm Calm - N/A   Clear
5:50 AM 30.2 °F 26.6 °F 86% 30.21 in - Calm Calm - N/A   Clear
6:50 AM 32.0 °F 28.4 °F 87% 30.24 in - Calm Calm - N/A   Clear
7:50 AM 42.8 °F 28.4 °F 57% 30.24 in - Calm Calm - N/A   Clear
8:00 AM 43 °F 27 °F 41%  in 12 mi Calm Calm - -  
8:50 AM 50.0 °F 24.8 °F 37% 30.24 in - Calm Calm - N/A   Clear
9:50 AM 53.6 °F 24.8 °F 33% 30.21 in - ESE 3.5 mph - N/A   Clear
10:50 AM 59.0 °F 24.8 °F 27% 30.18 in - Variable 1.2 mph - N/A   Clear
11:50 AM 62.6 °F 24.8 °F 24% 30.15 in - Variable 1.2 mph - N/A   Clear
12:50 PM 66.2 °F 23.0 °F 19% 30.12 in - Variable 1.2 mph - N/A   Clear
1:50 PM 66.2 °F 23.0 °F 19% 30.12 in - Variable 1.2 mph - N/A   Clear
2:00 PM 66 °F 22 °F 10%  in 6 mi NE 1.2 mph - -  
2:50 PM 66.2 °F 23.0 °F 19% 30.09 in - Variable 1.2 mph - N/A   Clear
3:50 PM 64.4 °F 24.8 °F 22% 30.09 in - Calm Calm - N/A   Clear
4:50 PM 55.4 °F 26.6 °F 33% 30.12 in - Variable 1.2 mph - N/A   Clear
5:50 PM 48.2 °F 28.4 °F 46% 30.12 in - Calm Calm - N/A   Clear
6:50 PM 46.4 °F 28.4 °F 50% 30.15 in - Calm Calm - N/A   Clear
7:50 PM 44.6 °F 28.4 °F 53% 30.15 in - Calm Calm - N/A   Clear
8:00 PM 44 °F 28 °F 42%  in 12 mi Calm Calm - -  
8:50 PM 39.2 °F 28.4 °F 65% 30.18 in - Calm Calm - N/A   Clear
9:50 PM 39.2 °F 28.4 °F 65% 30.18 in - NW 1.2 mph - N/A   Clear
10:50 PM 35.6 °F 32.0 °F 87% 30.18 in - Calm Calm - N/A   Clear
11:50 PM 33.8 °F 28.4 °F 81% 30.18 in - Calm Calm - N/A   Clear